Tracking 21094 objects as of 14-Aug-2020
HD Live streaming from Space Station
objects crossing your sky now
Track the most recent launched group of Starlink satellites

SL-8 R/B

Track SL-8 R/B now!
10-day predictions


NORAD ID: 7434
Int'l Code: 1974-071B
Perigee: 760.8 km
Apogee: 792.0 km
Inclination: 74.0 °
Period: 100.2 minutes
Semi major axis: 7147 km
RCS: 4.4573 m2 (large)
Launch date: September 11, 1974
Source: Commonwealth of Independent States (former USSR) (CIS)
Launch site: PLESETSK MISSILE AND SPACE COMPLEX (PKMTR)

Note: This is a ROCKET BODY
aabbcc
Your satellite tracking list
Your tracking list is empty




NASA's NSSDC Master Catalog

Two Line Element Set (TLE):
1  7434U 74071B   20226.33517414 -.00000065  00000-0 -12974-4 0  9997
2  7434  74.0443 256.1362 0021818 243.6361 116.2553 14.36742637402318
Source of the keplerian elements: AFSPC